Regional Weather Roundup
Issued by NWS Nashville, TN

Home | Current Version | Previous Version | Text Only | Print | Product List | Glossary On
Versions: 1 2 3 4 5 6 7 8 9 10 11 12 13 14 15 16 17 18 19 20 21 22 23 24 25 26 27 28
000
ASUS44 KOHX 292010
RWROHX
MIDDLE TENNESSEE HOURLY WEATHER ROUNDUP
NATIONAL WEATHER SERVICE NASHVILLE TN
300 PM CDT FRI JUL 29 2016

NOTE: "FAIR" INDICATES FEW OR NO CLOUDS BELOW 12,000 FEET WITH
NO SIGNIFICANT WEATHER AND/OR OBSTRUCTIONS TO VISIBILITY.

* THESE REPORTS ARE NOT UNDER NWS QUALITY CONTROL AND MAY NOT
  REPORT WEATHER SUCH AS PRECIPITATION AND FOG.


TNZ005>011-023>034-057-059-062>066-078-080-292100
...NORTHERN MIDDLE TENNESSEE...

CITY           SKY/WX    TMP DP  RH WIND       PRES   REMARKS
CLARKSVILLE    LGT RAIN  79  72  79 NW8       29.92F
CROSSVILLE     PTSUNNY   82  69  64 W10       30.03F
NASHVILLE      PTSUNNY   88  71  57 W7G16     29.95F HX  94
SMYRNA         MOSUNNY   90  73  57 W8        29.96S HX  98
SPARTA         PTSUNNY   72  70  94 N6        30.01R
$$
TNZ056-058-060-061-075>077-079-093>097-292100
...SOUTHERN MIDDLE TENNESSEE...

CITY           SKY/WX    TMP DP  RH WIND       PRES   REMARKS
COLUMBIA       PTSUNNY   88  75  66 VRB7      29.95F HX  97
FAYETTEVILLE   PTSUNNY   84  73  70 SW7       29.99S HX  91
MCMINNVILLE    MOSUNNY   86  75  70 W7        29.99S HX  95
SHELBYVILLE    PTSUNNY   90  75  62 SW8       29.98F HX 100
TULLAHOMA      PTSUNNY   84  72  65 SW10      30.01S
WINCHESTER     MOSUNNY   84  72  65 W6        30.00S
$$


...KEY TO REMARKS...
VSB - VISIBILITY IN MILES
WCI - WIND CHILL INDEX
HX  - HEAT INDEX





USA.gov is the U.S. government's official web portal to all federal, state and local government web resources and services.